Location: Rounton
(54.4000°N, 1.3500°W)
Time: 13:51:01
(UTC+00:00)

Transit 4A - Pass Details

Date: 08 December 2021
Orbit: 864 x 981 km, 66.8° (Epoch: 20 January)

Event Time Altitude Azimuth Distance (km) Brightness Sun altitude
Rises 00:11:03 0° 306° (NW) 3,563 - -58.2°
Reaches altitude 10° 00:13:52 10° 317° (NW) 2,639 - -58.2°
Maximum altitude 00:19:17 31° 19° (NNE) 1,607 - -58.0°
Drops below altitude 10° 00:24:49 10° 80° (E) 2,702 - -57.9°
Sets 00:27:44 0° 91° (E) 3,661 - -57.8°
